FW0009 Weather Reports


time (UTC)temp
C
wind
direction
speed
KPH
gust
KPH
rain 1hr
cm
rain 24hr
cm
rain mn
cm
humidity
%
barometer
mb
20260507163102 17 340 6.4 14.5 0.00 0.00 0.00 35 1009.3
20260507161605 17 31 6.4 17.7 0.00 0.00 0.00 37 1009.3
20260507154604 17 321 6.4 14.5 0.00 0.00 0.00 38 1009.3
20260507153005 16 348 3.2 11.3 0.00 0.00 0.00 42 1009.3
20260507151502 16 322 1.6 9.7 0.00 0.00 0.00 42 1009.2
20260507150104 16 289 1.6 9.7 0.00 0.00 0.00 44 1009.3
20260507144502 15 332 1.6 8.0 0.00 0.00 0.00 47 1009.5
20260507143120 13 271 1.6 8.0 0.00 0.00 0.00 52 1009.4
20260507141609 13 282 1.6 6.4 0.00 0.00 0.00 53 1009.3
20260507140004 12 278 1.6 6.4 0.00 0.00 0.00 53 1009.3
20260507134603 12 302 1.6 8.0 0.00 0.00 0.00 56 1009.3
20260507133005 11 288 1.6 8.0 0.00 0.00 0.00 57 1009.0
20260507131507 11 281 3.2 9.7 0.00 0.00 0.00 58 1009.0
20260507124508 10 278 1.6 8.0 0.00 0.00 0.00 60 1008.8
20260507123102 10 299 0.0 8.0 0.00 0.00 0.00 61 1008.7
20260507121603 10 302 1.6 6.4 0.00 0.00 0.00 61 1008.6
20260507120007 10 293 1.6 8.0 0.00 0.00 0.00 61 1008.5
20260507114611 10 273 1.6 8.0 0.00 0.00 0.00 61 1008.2
20260507113010 10 285 1.6 6.4 0.00 0.00 0.00 61 1008.2
20260507111503 11 297 0.0 6.4 0.00 0.00 0.00 62 1008.0
20260507104503 11 246 0.0 8.0 0.00 0.00 0.00 63 1007.7
20260507103106 11 235 1.6 6.4 0.00 0.00 0.00 63 1007.8
20260507101603 11 239 1.6 6.4 0.00 0.00 0.00 64 1007.8
20260507100004 11 235 3.2 11.3 0.00 0.00 0.00 66 1007.8
20260507094610 11 244 3.2 6.4 0.00 0.00 0.00 65 1007.8
20260507091504 12 246 1.6 11.3 0.00 0.00 0.00 62 1007.5
20260507084505 12 253 3.2 11.3 0.00 0.00 0.00 61 1007.5
20260507083102 13 246 3.2 11.3 0.00 0.00 0.00 59 1007.7
20260507081607 13 251 1.6 9.7 0.00 0.00 0.00 59 1007.5
20260507074604 12 241 1.6 6.4 0.00 0.00 0.00 60 1007.6
20260507073004 12 233 0.0 3.2 0.00 0.00 0.00 61 1007.9
20260507071502 12 233 0.0 3.2 0.00 0.00 0.00 61 1007.9
20260507070107 12 233 0.0 3.2 0.00 0.00 0.00 62 1008.0
20260507063105 12 241 0.0 1.6 0.00 0.00 0.00 62 1008.1
20260507061603 12 241 0.0 3.2 0.00 0.00 0.00 61 1008.2
20260507060002 12 230 0.0 6.4 0.00 0.00 0.00 62 1007.8
20260507054603 12 250 0.0 3.2 0.00 0.00 0.00 62 1008.6
20260507053002 12 250 0.0 3.2 0.00 0.00 0.00 63 1008.3
20260507051502 12 250 0.0 1.6 0.00 0.00 0.00 65 1008.2
20260507044503 12 250 0.0 1.6 0.00 0.00 0.00 65 1008.2
20260507043127 12 250 0.0 1.6 0.00 0.00 0.00 64 1008.3
20260507041609 13 250 0.0 0.0 0.00 0.00 0.00 63 1008.1
20260507040002 13 250 0.0 1.6 0.00 0.00 0.00 61 1008.1
20260507034601 13 250 0.0 3.2 0.00 0.00 0.00 60 1007.8
20260507033003 14 250 0.0 6.4 0.00 0.00 0.00 61 1007.6
20260507031502 14 228 4.8 11.3 0.00 0.00 0.00 60 1007.3
20260507024503 16 227 1.6 9.7 0.00 0.00 0.00 51 1008.1
20260507023111 16 250 4.8 19.3 0.00 0.00 0.00 47 1007.7
20260507021603 17 259 4.8 16.1 0.00 0.00 0.00 43 1007.5
20260507020004 18 158 0.0 6.4 0.00 0.00 0.00 32 1007.8
20260507014603 18 103 0.0 3.2 0.00 0.00 0.00 29 1007.7
20260507013003 18 103 0.0 1.6 0.00 0.00 0.00 28 1007.1
20260507011502 19 103 0.0 6.4 0.00 0.00 0.00 28 1006.8
20260507004503 20 120 1.6 4.8 0.00 0.00 0.00 27 1006.7
20260507003117 20 84 1.6 9.7 0.00 0.00 0.00 26 1006.5
20260507001616 21 88 1.6 8.0 0.00 0.00 0.00 25 1006.6
20260507000003 21 107 1.6 9.7 0.00 0.00 0.00 25 1006.5
20260506234604 22 57 6.4 14.5 0.00 0.00 0.00 24 1006.4
20260506233003 22 123 4.8 11.3 0.00 0.00 0.00 25 1006.4
20260506231503 21 101 4.8 11.3 0.00 0.00 0.00 25 1006.5
20260506230115 21 142 3.2 14.5 0.00 0.00 0.00 25 1006.5
20260506224501 22 71 1.6 11.3 0.00 0.00 0.00 25 1006.7
20260506223107 21 152 3.2 14.5 0.00 0.00 0.00 24 1006.7
20260506221617 22 159 3.2 11.3 0.00 0.00 0.00 24 1007.1
20260506220003 22 160 4.8 12.9 0.00 0.00 0.00 24 1007.2
20260506214605 22 82 4.8 14.5 0.00 0.00 0.00 23 1007.5
20260506213002 22 107 3.2 12.9 0.00 0.00 0.00 23 1007.8
20260506211503 22 139 4.8 16.1 0.00 0.00 0.00 24 1007.9
20260506204503 22 174 6.4 11.3 0.00 0.00 0.00 23 1008.3
20260506203122 21 171 3.2 9.7 0.00 0.00 0.00 24 1008.4
20260506201603 21 174 8.0 20.9 0.00 0.00 0.00 24 1008.5
20260506200002 21 151 6.4 14.5 0.00 0.00 0.00 25 1008.7
20260506194610 20 128 9.7 16.1 0.00 0.00 0.00 24 1008.8
20260506193002 20 192 4.8 12.9 0.00 0.00 0.00 24 1008.9
20260506191507 19 167 8.0 17.7 0.00 0.00 0.00 26 1009.2
20260506190104 18 85 9.7 14.5 0.00 0.00 0.00 27 1009.5
20260506184504 18 160 6.4 29.0 0.00 0.00 0.00 27 1009.6
20260506183109 17 157 9.7 16.1 0.00 0.00 0.00 28 1009.9
20260506181605 17 85 6.4 16.1 0.00 0.00 0.00 30 1010.0
20260506180003 16 176 9.7 20.9 0.00 0.00 0.00 30 1010.1
20260506174604 16 93 11.3 22.5 0.00 0.00 0.00 30 1010.4
20260506173003 16 179 9.7 16.1 0.00 0.00 0.00 33 1010.6
20260506171504 15 180 6.4 14.5 0.00 0.00 0.00 34 1011.0
20260506170110 13 201 6.4 14.5 0.00 0.00 0.00 36 1011.3
20260506164513 13 155 6.4 16.1 0.00 0.00 0.00 37 1011.5